Flag for United Kingdom Weather past 2 weeks in Glasgow, Scotland, United Kingdom

Now
54 °F

Light rain. Passing clouds.


Feels Like: 51 °F
Forecast: 42 / 58 °F
Wind: 8 mph from West

Location: Glasgow Airport

Current Time: Sep 4, 2015 at 12:20:07 PM

Latest Report: Sep 4, 2015 at 11:50 AM


Visibility: N/A

Pressure: 30.12 "Hg

Humidity: 77%

Dew point: 46 °F

Location of GlasgowLocation

Historic Weather in Glasgow — Graph

°F

Glasgow temperature yesterday

Maximum temperature yesterday: 64 °F (at 3:50 PM)
Minimum temperature yesterday: 45 °F (at 3:20 AM)
Average temperature yesterday: 55 °F

Past Weeks' High & Low Weather Summary

 TemperatureHumidityPressure
High77 °F (Aug 23, 2:20 PM)100% (Aug 23, 3:20 AM)30.12 "Hg (Aug 23, 3:20 AM)
Low43 °F (Aug 31, 5:50 AM)44% (Aug 23, 3:20 PM)29.27 "Hg (Aug 26, 10:50 AM)
Average58 °F81%29.82 "Hg
* Reported Aug 20 11:20 AM — Sep 4 11:20 AM, Glasgow, Weather by CustomWeather, © 2015

Note: Actual official high and low records may vary slightly from our data, if they occured in-between our weather recording intervals... More about our weather records

Advertising

Glasgow weather history for previous 24 hours

 ConditionsComfort  
Time TempWeatherWind HumidityBarometerVisibility
11:20 AM
Fri, Sep 4
54 °FLight rain. Passing clouds.12 mph77%30.12 "HgN/A
10:50 AM55 °FSunny.12 mph72%30.12 "Hg10 mi
10:20 AM55 °FPassing clouds.9 mph72%30.12 "HgN/A
9:50 AM52 °FSunny.9 mph82%30.12 "Hg10 mi
9:20 AM52 °FPassing clouds.8 mph82%30.09 "HgN/A
8:50 AM50 °FPassing clouds.5 mph82%30.09 "HgN/A
8:20 AM50 °FSunny.7 mph82%30.09 "Hg10 mi
7:50 AM48 °FPassing clouds.6 mph87%30.09 "HgN/A
7:20 AM46 °FClear.6 mph93%30.09 "Hg10 mi
6:50 AM46 °FPassing clouds.5 mph87%30.07 "HgN/A
6:20 AM48 °FPassing clouds.7 mph82%30.09 "HgN/A
5:50 AM48 °FClear.9 mph82%30.07 "Hg10 mi
5:20 AM48 °FClear.10 mph87%30.07 "Hg10 mi
4:50 AM48 °FClear.9 mph87%30.07 "Hg10 mi
4:20 AM48 °FClear.9 mph87%30.07 "Hg10 mi
3:50 AM48 °FClear.8 mph87%30.07 "Hg10 mi
3:20 AM48 °FPassing clouds.9 mph87%30.07 "HgN/A
2:50 AM48 °FCool.8 mph87%30.07 "HgN/A
2:20 AM50 °FClear.7 mph82%30.07 "Hg10 mi
1:50 AM50 °FClear.8 mph88%30.07 "Hg10 mi
1:20 AM50 °FClear.7 mph88%30.07 "Hg10 mi
12:50 AM50 °FClear.6 mph88%30.07 "Hg10 mi
12:20 AM50 °FClear.8 mph88%30.07 "Hg10 mi
11:50 PM
Thu, Sep 3
48 °FClear.7 mph87%30.07 "Hg10 mi
11:20 PM50 °FClear.8 mph88%30.07 "Hg10 mi
10:20 PM50 °FClear.7 mph88%30.07 "Hg10 mi
9:50 PM50 °FClear.7 mph88%30.07 "Hg10 mi
9:20 PM54 °FPassing clouds.6 mph82%30.04 "HgN/A
8:50 PM54 °FSunny.8 mph82%30.04 "Hg10 mi
8:20 PM55 °FSunny.9 mph77%30.04 "Hg10 mi
7:50 PM57 °FSunny.8 mph72%30.04 "Hg10 mi
7:20 PM59 °FSunny.10 mph68%30.04 "Hg10 mi
6:50 PM61 °FSunny.7 mph63%30.01 "Hg10 mi
6:20 PM63 °FScattered clouds.10 mph52%30.01 "HgN/A
5:50 PM63 °FPassing clouds.8 mph52%30.01 "HgN/A
5:20 PM63 °FScattered clouds.12 mph49%30.01 "HgN/A
4:50 PM63 °FScattered clouds.9 mph52%30.01 "HgN/A
4:20 PM64 °FScattered clouds.13 mph49%30.01 "HgN/A
3:50 PM64 °FScattered clouds.13 mph49%30.01 "HgN/A
3:20 PM61 °FScattered clouds.13 mph52%30.01 "HgN/A
2:50 PM63 °FScattered clouds.10 mph52%30.01 "HgN/A
2:20 PM63 °FScattered clouds.10 mph56%30.01 "HgN/A
1:50 PM63 °FScattered clouds.9 mph52%30.01 "HgN/A
1:20 PM63 °FScattered clouds.7 mph52%30.01 "HgN/A
12:50 PM59 °FScattered clouds.6 mph55%30.01 "HgN/A
12:20 PM61 °FScattered clouds.9 mph55%30.01 "HgN/A
Weather by CustomWeather, © 2015

See weather overviewHow to use our weather pages